Other Surface Observations
Issued by NWS Charleston, SC

Home | Current Version | Previous Version | Text Only | Print | Product List | Glossary On
Versions: 1 2 3 4 5 6 7 8 9 10 11 12 13 14 15 16 17 18 19 20 21 22 23 24 25 26 27 28 29 30 31 32 33 34 35 36 37 38 39 40 41 42 43 44 45 46 47 48 49 50
000
SXUS52 KCHS 250545
OSOCHS

MARINE OBSERVATIONS
NATIONAL WEATHER SERVICE CHARLESTON SC
200 AM EDT MON SEP 25 2017

...DOWNTOWN CHARLESTON AND HARBOR...

CITY           SKY/WX    TMP DP  RH WIND       PRES   REMARKS
WATERFRONT PRK   N/A     78  71  79 N9        29.75F

...LAKE MOULTRIE...

CITY           SKY/WX    TMP DP  RH WIND       PRES   REMARKS
PINOPOLIS        N/A     77  70  78 NE12      29.85F

...LAKE AND SUPPLEMENTAL COASTAL OBSERVATIONS...

STATION/POSITION TIME  TEMP    WIND        PRES    WAVE   SWELL
                       AIR SEA DIR/SP/G            HT/PER HT/PER/DIR
                 (UTC) (F)     (DEG/KT/KT) (MB)    (FT/S) (FT/S/D)
FORT PULASKI     0518   76 81  360/  5/  5 1013.2
SAPELO ISLAND    0500   77        CALM     1013.0
WINYAH BAY       0430   75     360/  6     1013.0S
LAKE MURRAY      0520   73      10/  2/  4 1013.9F
ACE BASIN NERRS  0445   74     330/  1     1013.0S


...C-MAN AND BUOY OBSERVATIONS...

STATION/POSITION TIME  TEMP    WIND        PRES    WAVE   SWELL
                       AIR SEA DIR/SP/G            HT/PER HT/PER/DIR
                 (UTC) (F)     (DEG/KT/KT) (MB)    (FT/S) (FT/S/D)
BUOY 41004       0520   79 81   20/ 17/ 21 1010.7
BUOY 41008       0450   80 80   50/ 14/ 16 1011.9F   5/16   3/120/16
FOLLY BEACH CMAN 0500   78     360/ 10/ 11 1012.9F
CAPERS NS BUOY   0508   76 80   30/ 16/ 21 1011.7F
FRIPP NS BUOY    0508   79      20/ 10/ 14 1019.0R
5E ST. MARYS GA  0530      81                N/A     7/15   3/130/15


STATION/POSITION TIME  TEMP    WIND        PRES    WAVE   SWELL
                       AIR SEA DIR/SP/G            HT/PER HT/PER/DIR
                 (UTC) (F)     (DEG/KT/KT) (MB)    (FT/S) (FT/S/D)
FRYING PAN BUOY  0520   78 82   30/ 21/ 25 1011.1
BUOY 41025       0450   76 80   40/ 19/ 25 1012.4R  11/11  10/160/11
CAPE LOOKOUT NC  0500   75      30/ 21/ 23 1012.8F
BUOY 41002       0450   79 80   20/ 31/ 37 1000.7F  22/13  13/130/13
BUOY 41010       0520           10/ 16/ 17 1009.6
ST AUGUSTINE FL  0500   80 82   20/ 13/ 14 1012.4F

$$




USA.gov is the U.S. government's official web portal to all federal, state and local government web resources and services.